YB1DDK-2 Weather Reports


time (UTC)temp
F
wind
direction
speed
knots
gust
knots
rain 1hr
in
rain 24hr
in
rain mn
in
humidity
%
barometer
mb
20260508101805 93 0 0.0 0.0 0.00 0.00 0.00 65 998.0
20260508100134 93 0 0.0 0.0 0.00 0.00 0.00 64 998.0
20260508094503 93 0 0.0 0.0 0.00 0.00 0.00 66 998.0
20260508092832 93 0 0.0 0.0 0.00 0.00 0.00 65 998.0
20260508091201 94 0 0.0 0.0 0.00 0.00 0.00 64 998.0
20260508085529 94 0 0.0 0.0 0.00 0.00 0.00 63 998.0
20260508083858 94 0 0.0 0.0 0.00 0.00 0.00 65 998.0
20260508082228 94 0 0.0 0.0 0.00 0.00 0.00 65 998.0
20260508080557 94 0 0.0 0.0 0.00 0.00 0.00 65 998.0
20260508074925 97 0 0.0 0.0 0.00 0.00 0.00 54 998.0
20260508073255 98 0 0.0 0.0 0.00 0.00 0.00 52 997.0
20260508071623 100 0 0.0 0.0 0.00 0.00 0.00 50 998.0
20260508065951 100 0 0.0 0.0 0.00 0.00 0.00 49 998.0
20260508064320 100 0 0.0 0.0 0.00 0.00 0.00 48 998.0
20260508062649 99 0 0.0 0.0 0.00 0.00 0.00 48 998.0
20260508061017 99 0 0.0 0.0 0.00 0.00 0.00 47 998.0
20260508055346 99 0 0.0 0.0 0.00 0.00 0.00 47 998.0
20260508053716 99 0 0.0 0.0 0.00 0.00 0.00 50 999.0
20260508052055 98 0 0.0 0.0 0.00 0.00 0.00 49 999.0
20260508050533 98 0 0.0 0.0 0.00 0.00 0.00 52 999.0
20260508045011 98 0 0.0 0.0 0.00 0.00 0.00 49 999.0
20260508043449 98 0 0.0 0.0 0.00 0.00 0.00 52 999.0
20260508041927 97 0 0.0 0.0 0.00 0.00 0.00 54 999.0
20260508040405 97 0 0.0 0.0 0.00 0.00 0.00 54 1000.0
20260508034734 96 0 0.0 0.0 0.00 0.00 0.00 56 1000.0
20260508033103 96 0 0.0 0.0 0.00 0.00 0.00 57 1000.0
20260508031442 94 0 0.0 0.0 0.00 0.00 0.00 59 1000.0
20260508025920 94 0 0.0 0.0 0.00 0.00 0.00 61 1000.0
20260508024358 93 0 0.0 0.0 0.00 0.00 0.00 62 1001.0
20260508022836 92 0 0.0 0.0 0.00 0.00 0.00 63 1001.0
20260508021314 92 0 0.0 0.0 0.00 0.00 0.00 63 1001.0
20260508015752 91 0 0.0 0.0 0.00 0.00 0.00 64 1001.0
20260508014230 91 0 0.0 0.0 0.00 0.00 0.00 64 1001.0
20260508012708 91 0 0.0 0.0 0.00 0.00 0.00 65 1001.0
20260508011146 90 0 0.0 0.0 0.00 0.00 0.00 65 1001.0
20260508005624 90 0 0.0 0.0 0.00 0.00 0.00 64 1001.0
20260508004102 90 0 0.0 0.0 0.00 0.00 0.00 64 1000.0
20260508002540 90 0 0.0 0.0 0.00 0.00 0.00 65 1000.0
20260508001018 90 0 0.0 0.0 0.00 0.00 0.00 65 1000.0
20260507235456 90 0 0.0 0.0 0.00 0.00 0.00 66 1000.0
20260507233835 90 0 0.0 0.0 0.00 0.00 0.00 66 1000.0
20260507232313 90 0 0.0 0.0 0.00 0.00 0.00 67 1000.0
20260507230751 90 0 0.0 0.0 0.00 0.00 0.00 68 1000.0
20260507225229 90 0 0.0 0.0 0.00 0.00 0.00 67 1000.0
20260507223707 90 0 0.0 0.0 0.00 0.00 0.00 68 1000.0
20260507222145 90 0 0.0 0.0 0.00 0.00 0.00 68 999.0
20260507220623 90 0 0.0 0.0 0.00 0.00 0.00 70 999.0
20260507215101 90 0 0.0 0.0 0.00 0.00 0.00 69 999.0
20260507213539 90 0 0.0 0.0 0.00 0.00 0.00 69 999.0
20260507211908 91 0 0.0 0.0 0.00 0.00 0.00 68 999.0
20260507210237 91 0 0.0 0.0 0.00 0.00 0.00 66 999.0
20260507204606 91 0 0.0 0.0 0.00 0.00 0.00 67 999.0
20260507202935 91 0 0.0 0.0 0.00 0.00 0.00 69 999.0
20260507201303 91 0 0.0 0.0 0.00 0.00 0.00 68 999.0
20260507195631 91 0 0.0 0.0 0.00 0.00 0.00 67 999.0
20260507194000 91 0 0.0 0.0 0.00 0.00 0.00 67 999.0
20260507192339 91 0 0.0 0.0 0.00 0.00 0.00 67 999.0
20260507190817 91 0 0.0 0.0 0.00 0.00 0.00 69 999.0
20260507185255 91 0 0.0 0.0 0.00 0.00 0.00 68 999.0
20260507183732 91 0 0.0 0.0 0.00 0.00 0.00 68 1000.0
20260507182210 91 0 0.0 0.0 0.00 0.00 0.00 67 1000.0
20260507180648 92 0 0.0 0.0 0.00 0.00 0.00 69 1000.0
20260507175126 92 0 0.0 0.0 0.00 0.00 0.00 69 1000.0
20260507173604 92 0 0.0 0.0 0.00 0.00 0.00 69 1001.0
20260507172042 92 0 0.0 0.0 0.00 0.00 0.00 68 1001.0
20260507170520 92 0 0.0 0.0 0.00 0.00 0.00 68 1001.0
20260507164854 92 0 0.0 0.0 0.00 0.00 0.00 68 1001.0
20260507163332 92 0 0.0 0.0 0.00 0.00 0.00 67 1001.0
20260507161810 92 0 0.0 0.0 0.00 0.00 0.00 66 1001.0
20260507160248 92 0 0.0 0.0 0.00 0.00 0.00 66 1001.0
20260507154726 92 0 0.0 0.0 0.00 0.00 0.00 66 1001.0
20260507153204 92 0 0.0 0.0 0.00 0.00 0.00 66 1001.0
20260507151642 92 0 0.0 0.0 0.00 0.00 0.00 65 1001.0
20260507150120 92 0 0.0 0.0 0.00 0.00 0.00 65 1001.0
20260507144558 92 0 0.0 0.0 0.00 0.00 0.00 65 1001.0
20260507143036 92 0 0.0 0.0 0.00 0.00 0.00 65 1001.0
20260507141515 92 0 0.0 0.0 0.00 0.00 0.00 65 1001.0
20260507135952 93 0 0.0 0.0 0.00 0.00 0.00 65 1001.0
20260507134430 93 0 0.0 0.0 0.00 0.00 0.00 65 1001.0
20260507132908 92 0 0.0 0.0 0.00 0.00 0.00 65 1001.0
20260507131346 92 0 0.0 0.0 0.00 0.00 0.00 65 1000.0
20260507125824 92 0 0.0 0.0 0.00 0.00 0.00 65 1000.0
20260507124302 92 0 0.0 0.0 0.00 0.00 0.00 65 1000.0
20260507122740 92 0 0.0 0.0 0.00 0.00 0.00 66 1000.0
20260507121218 93 0 0.0 0.0 0.00 0.00 0.00 67 999.0
20260507115656 93 0 0.0 0.0 0.00 0.00 0.00 67 999.0
20260507114134 93 0 0.0 0.0 0.00 0.00 0.00 66 999.0
20260507112612 93 0 0.0 0.0 0.00 0.00 0.00 64 998.0
20260507111050 93 0 0.0 0.0 0.00 0.00 0.00 63 998.0
20260507105529 94 0 0.0 0.0 0.00 0.00 0.00 63 998.0
20260507104006 94 0 0.0 0.0 0.00 0.00 0.00 62 998.0
20260507102444 94 0 0.0 0.0 0.00 0.00 0.00 61 998.0